RH
99 99 100 100 98 85 100 99 98 94 100 98 93 83 70 71 71 32 20 16 16 16 16 16 16 16 17 17 18 20 22 24 27 30 33 37 40 40
99 99 99 100 89 99 100 100 100 100 92 100 98 83 59 48 32 24 20 18 18 18 18 18 18 18 18 19 20 21 22 24 26 28 32 34 41 44
99 99 99 99 100 99 99 100 99 100 100 98 98 67 48 34 30 25 21 20 19 19 19 19 19 20 20 20 21 22 24 26 28 30 34 40 44 48
99 98 98 99 99 99 99 99 100 100 98 100 97 73 58 38 26 24 21 20 20 21 21 22 22 23 23 23 24 24 26 28 29 31 35 40 44 49
95 96 97 98 98 98 98 99 99 100 99 99 100 84 45 31 25 25 25 24 23 24 24 24 25 26 26 26 26 27 29 30 32 33 34 36 40 45
98 98 96 97 97 96 96 97 97 98 98 98 97 88 32 27 24 24 24 25 25 26 26 26 27 28 28 29 30 30 31 32 34 34 35 36 38 42
95 99 100 100 98 96 95 96 96 96 97 96 93 74 38 25 24 25 26 26 27 28 27 29 29 31 30 31 32 33 34 36 38 38 38 39 40 43
90 96 95 95 98 100 97 96 96 95 96 95 95 83 59 44 30 28 28 28 29 30 30 31 32 32 34 34 36 36 38 39 41 43 49 59 63 66
84 84 87 93 95 94 94 95 96 96 98 96 96 95 85 55 42 38 34 33 33 34 35 35 36 45 43 39 39 40 42 49 61 71 71 68 65 63
89 86 87 87 92 96 96 96 96 97 94 95 96 96 96 94 89 75 60 52 48 44 40 39 39 38 40 41 44 58 73 78 76 71 68 67 66 66
92 96 94 93 93 89 95 98 96 97 97 96 96 96 96 96 96 96 96 96 96 95 94 93 94 95 96 94 92 93 90 81 75 70 68 69 70 67
94 90 96 96 99 100 100 98 96 99 98 98 97 97 98 97 96 96 98 96 96 98 96 94 93 96 92 92 95 95 94 90 81 77 74 72 72 71
96 98 95 96 97 100 98 99 100 100 98 97 97 98 98 97 98 98 98 97 98 97 99 98 98 97 94 90 84 82 84 87 80 76 74 73 72 71
52 83 95 99 99 99 99 100 96 97 100 99 100 98 98 97 98 98 98 97 97 98 99 97 95 94 95 94 91 86 84 81 77 74 73 74 73 72
14 14 26 70 92 99 100 100 100 100 98 98 98 97 99 100 99 97 99 98 97 99 98 99 98 98 94 90 88 83 80 75 76 73 73 73 74 75
17 17 17 16 16 37 81 100 100 100 100 100 100 98 98 100 100 100 100 100 99 100 100 99 100 99 96 94 92 86 82 78 76 75 75 74 72 71
28 28 25 22 20 20 20 24 47 96 100 100 100 100 100 100 98 100 100 100 100 100 100 100 100 99 98 97 94 92 89 88 88 88 85 76 73 72
99 76 47 47 34 26 22 22 24 26 34 89 100 100 100 100 100 100 100 100 100 100 100 100 100 100 100 100 100 100 99 92 88 86 84 78 70 58
91 100 100 88 83 80 61 35 25 27 30 34 34 43 86 100 100 100 100 100 100 100 100 100 100 100 100 99 100 100 99 94 88 71 56 54 51 39
75 87 93 100 100 93 85 82 77 63 48 37 35 33 33 32 32 33 40 46 52 62 75 89 98 100 100 99 93 80 78 81 93 77 49 41 46 50
63 70 78 85 94 100 100 99 88 82 78 79 76 75 69 69 59 54 53 52 53 50 44 42 44 46 42 43 38 32 30 38 36 36 40 60 84 89
53 52 49 53 70 85 99 100 100 100 94 84 87 97 100 99 93 94 89 85 84 83 75 70 68 68 67 64 54 50 45 42 44 44 47 53 54 44
69 70 69 65 57 49 55 80 95 96 100 100 100 100 91 82 81 85 87 82 77 73 67 65 66 69 63 53 49 39 34 30 35 40 39 54 65 70
Wind_Speed
53 54 59 46 53 50 50 49 46 35 52 44 38 36 37 38 40 42 42 40 40 38 35 36 35 35 34 33 33 32 32 33 33 33 33 33 33 34
57 56 54 56 57 51 57 53 53 48 54 44 39 37 39 42 42 43 43 41 43 40 38 38 38 38 38 37 36 35 35 35 35 35 35 36 35 34
59 59 60 62 64 58 58 64 55 59 59 57 48 43 44 43 44 43 43 43 44 41 42 41 41 40 39 40 38 38 37 37 37 37 38 37 37 37
51 54 58 62 63 64 65 59 60 63 58 59 55 48 47 47 44 46 45 45 45 45 44 44 43 43 42 43 41 41 39 39 39 39 41 39 39 39
46 49 53 57 59 61 60 65 70 60 58 56 53 49 47 48 49 50 49 49 48 49 47 46 46 46 45 45 44 43 42 42 42 41 40 42 43 43
44 46 47 51 55 55 55 55 57 58 55 54 49 50 47 49 50 51 52 51 50 49 50 48 49 48 47 47 48 45 45 44 44 43 44 44 44 45
39 41 42 44 48 51 51 53 52 52 53 50 45 45 47 50 51 47 48 49 50 51 51 52 49 50 47 47 47 46 50 47 44 46 47 48 49 48
34 36 38 39 37 39 44 48 53 55 51 50 46 43 45 45 47 46 48 52 54 52 49 47 50 50 48 47 46 49 49 49 50 50 51 52 53 52
29 30 31 34 35 34 35 37 45 49 49 51 50 46 42 41 40 45 48 48 48 47 48 49 51 49 48 49 49 50 52 53 56 56 56 55 55 54
30 30 31 31 32 33 34 35 36 40 42 42 44 46 46 44 44 43 44 45 47 48 48 47 49 52 51 51 52 55 58 59 58 59 57 55 55 54
32 32 33 34 34 35 36 38 38 39 40 42 44 46 46 50 51 52 54 56 58 60 60 63 62 60 60 62 62 60 59 60 60 59 59 57 55 55
36 36 35 35 36 36 38 40 42 42 43 44 44 45 46 48 51 53 54 56 57 59 58 59 61 60 62 62 61 60 60 59 58 58 56 55 54 55
42 41 40 39 39 38 39 40 41 42 45 47 49 50 51 51 52 53 54 56 58 60 60 60 61 60 62 64 62 59 57 56 55 55 55 54 53 53
46 47 46 44 43 42 41 41 42 41 43 45 49 51 52 53 54 55 56 57 58 60 59 59 60 60 59 60 60 57 54 53 53 54 53 52 53 53
44 46 46 48 47 44 44 44 43 43 44 45 49 50 50 50 51 52 53 54 55 55 55 54 55 54 55 57 56 56 55 52 51 51 51 51 50 50
39 43 44 45 47 47 47 45 45 46 47 48 47 48 48 47 47 47 48 48 50 52 51 50 50 51 53 52 52 53 52 52 49 48 47 47 48 49
31 33 36 38 41 41 43 45 45 45 46 49 51 52 52 52 51 50 50 49 49 49 48 47 48 49 50 50 52 51 50 50 48 46 46 47 48 49
23 28 29 28 31 33 36 39 42 43 45 47 47 48 49 48 47 46 46 46 46 46 46 45 45 46 47 48 47 47 48 48 47 47 48 49 51 51
25 27 29 31 31 30 29 32 36 38 40 43 46 48 48 48 48 49 49 49 48 47 46 45 45 47 48 51 48 45 48 49 48 48 49 51 55 56
30 33 35 35 31 34 34 35 33 34 35 37 39 40 41 43 44 46 47 47 48 48 48 49 51 49 50 52 53 53 49 51 52 55 54 50 49 49
30 33 36 39 40 39 31 32 34 34 33 33 35 35 35 34 35 34 35 35 35 37 38 39 39 41 44 46 48 47 44 43 46 47 46 47 48 51
24 26 28 32 35 39 42 41 30 28 30 30 30 30 32 34 35 33 33 32 32 33 34 35 35 37 39 41 44 43 43 42 41 43 44 45 48 53
19 22 26 29 31 32 36 40 43 44 35 28 29 30 31 31 34 34 34 36 37 38 38 39 39 41 41 42 43 44 44 44 44 44 45 42 46 49
Wind_Direction
236 223 222 233 223 235 228 236 235 236 227 241 247 248 241 237 236 240 237 238 240 240 239 242 245 248 248 249 250 250 252 254 255 256 258 260 265 267
231 237 235 230 230 226 236 236 223 230 241 245 247 245 243 241 238 239 238 237 238 241 242 243 244 245 248 249 250 252 253 255 257 259 260 261 263 265
236 229 232 230 232 221 229 233 240 238 231 238 240 236 238 239 240 239 238 238 240 240 243 243 245 247 249 250 251 253 254 256 259 261 263 264 264 263
238 235 234 237 236 232 229 229 233 229 230 233 233 231 234 235 235 236 236 236 238 240 240 243 245 248 249 252 252 254 256 257 259 260 260 263 265 267
253 249 247 239 234 235 238 239 231 225 223 230 231 232 232 233 231 231 233 234 235 238 240 242 245 247 251 252 254 255 257 258 260 262 263 265 267 268
243 245 245 247 247 243 241 239 235 227 220 220 221 225 228 229 231 232 233 236 237 239 242 243 246 248 250 253 256 258 260 260 261 263 265 266 268 271
243 242 243 243 245 245 244 244 241 237 231 219 220 224 229 230 231 234 236 237 238 239 241 244 245 248 249 252 254 258 259 261 265 267 269 270 270 271
246 248 248 245 242 242 241 241 243 239 232 229 226 230 234 237 235 238 238 237 238 241 245 245 248 249 250 254 256 258 262 267 269 271 272 274 275 275
251 252 251 250 249 249 250 246 239 233 231 231 230 229 234 240 238 238 239 241 242 242 244 244 247 250 254 257 260 263 265 269 272 273 275 275 275 275
248 248 249 251 251 246 244 244 245 245 241 237 236 233 231 230 233 234 236 239 241 243 247 250 254 257 255 255 259 264 269 271 272 273 274 273 273 273
248 244 244 243 243 244 244 243 240 241 243 245 241 237 238 238 238 240 241 242 244 248 248 250 250 254 258 262 264 266 267 269 270 272 272 273 273 273
254 251 247 243 242 240 241 241 242 242 242 242 241 242 244 244 246 248 248 249 250 251 251 257 260 262 262 262 265 267 269 270 271 271 272 272 272 271
257 256 252 249 246 241 239 241 242 243 242 242 242 242 241 241 242 243 245 246 248 252 256 257 259 260 262 266 266 265 266 267 269 268 269 270 270 270
258 257 255 252 252 249 246 246 247 241 242 242 243 243 244 243 245 246 247 250 252 254 255 256 259 260 263 264 266 267 266 266 265 267 267 267 268 268
260 260 260 260 257 253 250 246 245 245 248 248 246 244 244 244 245 246 247 250 253 254 257 259 261 262 262 264 265 266 267 265 263 264 265 265 265 263
261 260 260 258 256 255 254 250 246 243 242 245 249 252 252 250 249 248 250 251 253 254 255 258 259 261 262 263 264 264 265 268 268 265 266 266 266 267
264 262 261 260 258 255 254 253 249 244 243 243 244 246 250 252 254 255 255 253 253 254 255 255 257 260 261 263 264 265 267 268 269 271 269 269 268 267
263 261 254 259 257 254 252 251 251 249 246 243 244 245 247 249 252 254 255 256 257 259 260 261 261 261 262 261 263 267 269 270 269 269 270 272 272 272
246 248 255 257 254 249 249 249 248 249 248 249 248 247 248 248 249 252 251 254 257 260 262 262 262 262 262 263 265 266 271 270 270 270 272 272 274 277
252 248 246 248 256 259 257 256 255 253 251 250 251 252 252 252 252 252 254 255 256 256 255 255 255 256 259 262 264 263 263 267 270 272 273 272 272 272
266 264 259 253 252 251 256 258 258 255 255 255 254 253 253 251 250 250 250 252 253 253 253 254 256 256 257 259 261 264 264 262 265 268 268 265 266 268
273 272 268 265 260 257 254 252 245 250 254 255 251 251 253 253 255 254 254 253 253 256 257 257 256 257 259 261 263 264 264 262 262 264 266 268 270 271
287 282 277 272 267 261 258 257 254 247 244 241 243 249 253 256 255 253 254 258 263 264 264 266 267 267 267 266 266 265 264 265 264 260 260 263 266 270